SCP
1 1 0 0 0 0 0 0 0 0 0 0 0 0 0 0 0 0 0 0 0 0 0 0 0 1 1 1 1 1 1 1 1 1 1 1 1 1 0 0 0 0 0
1 1 1 1 1 1 1 0 0 0 0 0 0 0 0 0 0 0 0 0 0 0 0 0 0 1 1 1 1 1 1 1 1 1 1 1 1 1 1 0 0 0 0
1 1 1 1 1 1 1 0 0 0 0 0 0 0 0 0 0 0 0 0 0 0 0 0 0 1 1 1 1 1 1 1 1 1 1 1 1 1 1 0 0 0 0
1 1 1 1 1 1 1 0 0 0 0 0 0 0 0 0 0 0 0 0 0 0 0 0 0 1 1 1 1 1 0 0 1 1 1 1 1 1 0 0 0 0 0
1 1 1 1 1 1 1 0 0 0 0 0 0 0 0 0 0 0 0 0 1 0 0 0 0 0 0 1 1 0 0 0 1 1 1 1 1 1 0 0 0 0 0
1 1 1 1 1 1 0 0 0 0 0 0 0 0 0 0 0 0 0 0 0 0 0 0 0 0 0 0 0 0 0 0 1 1 1 1 1 1 1 1 1 1 1
1 1 1 1 1 1 0 0 0 0 0 0 0 0 0 0 0 0 0 0 0 0 0 0 0 0 0 0 0 0 1 1 1 1 1 1 1 1 1 1 1 1 1
1 1 1 1 1 1 0 0 0 0 0 0 0 0 0 0 0 0 0 0 0 0 0 0 0 0 0 0 0 0 0 0 0 0 0 0 0 0 1 1 1 1 1
1 1 1 1 1 1 0 0 0 0 0 0 0 0 0 0 0 0 0 0 0 0 0 0 0 0 0 0 0 0 0 0 0 0 0 0 0 0 0 0 1 1 1
1 1 1 1 1 1 1 0 0 0 0 0 0 0 0 0 0 0 0 0 0 0 0 0 0 0 0 0 0 0 0 0 0 0 0 0 0 0 0 0 0 1 1
0 0 0 0 0 0 1 0 0 0 0 0 0 0 0 0 0 0 0 0 0 0 0 0 0 0 0 0 0 0 0 0 0 0 0 0 0 0 0 0 0 0 0
0 0 0 0 0 0 1 1 0 0 0 0 0 0 0 0 0 0 0 0 0 0 0 0 0 0 0 0 0 0 0 0 0 0 0 0 0 0 0 0 0 0 0
0 0 0 0 0 0 1 0 0 0 0 0 0 0 0 0 0 0 0 0 0 0 0 0 0 0 0 0 0 0 0 0 0 0 0 0 0 0 0 0 0 0 0
0 0 0 0 0 0 0 0 0 0 0 0 0 0 0 0 0 0 0 0 0 0 0 0 0 0 0 0 0 0 0 0 0 0 0 0 0 0 0 0 0 0 0
0 0 0 0 0 0 0 0 0 0 0 0 0 0 0 0 0 0 0 0 0 0 0 0 0 0 0 0 0 0 0 0 0 0 0 0 0 0 0 0 0 0 0
0 0 0 0 0 0 0 0 0 0 0 0 0 0 0 0 0 0 0 0 0 0 0 0 0 0 0 0 0 0 0 0 0 0 0 0 0 0 0 0 0 0 0
0 0 0 0 0 0 0 0 0 0 0 0 0 0 0 0 0 0 0 0 0 0 0 0 0 0 0 0 0 0 0 0 0 0 0 0 0 0 0 0 0 0 0
0 0 0 0 0 0 0 0 0 0 0 0 0 0 0 0 0 0 0 0 0 0 0 0 0 0 0 0 0 0 0 0 0 0 0 0 0 0 0 0 0 0 0
0 0 0 0 0 0 0 0 0 0 0 0 0 0 0 0 0 0 0 0 0 0 0 0 0 0 0 0 0 0 0 0 0 0 0 0 0 0 0 0 0 0 0
0 0 0 0 0 0 0 0 0 0 0 0 0 0 0 0 0 0 0 0 0 0 0 0 0 0 0 0 0 0 0 0 0 0 0 0 0 0 0 0 0 0 0
0 0 0 0 0 0 0 0 0 0 0 0 0 0 0 0 0 0 0 0 0 0 0 0 0 0 0 0 0 0 0 0 0 0 0 0 0 0 0 0 0 0 0
0 0 0 0 0 0 0 0 0 0 0 0 0 0 0 0 0 0 0 0 0 0 0 0 0 0 0 0 0 0 0 0 0 0 0 0 0 0 0 0 0 0 0
0 0 0 0 0 0 0 0 0 0 0 0 0 0 0 0 0 0 0 0 0 0 0 0 0 0 0 0 0 0 0 0 0 0 0 0 0 0 0 0 0 0 0
0 0 0 0 0 0 0 0 0 0 0 0 0 0 0 0 0 0 0 0 0 0 0 0 0 0 0 0 0 0 0 0 0 0 0 0 0 0 0 0 0 0 0
0 0 0 0 0 0 0 0 0 0 0 0 0 0 0 0 0 0 0 0 0 0 0 0 0 0 0 0 0 0 0 0 0 0 0 0 0 0 0 0 0 0 0
0 0 0 0 0 0 0 0 0 0 0 0 0 0 0 0 0 0 0 0 0 0 0 0 0 0 0 0 0 0 0 0 0 0 0 0 0 0 0 0 0 0 0
Wind_Speed
3 3 2 2 2 2 2 2 1 1 1 0 1 1 1 1 1 0 0 0 1 2 2 2 2 2 3 2 2 2 1 1 1 1 1 1 1 1 1 1 1 2 2
4 3 3 3 2 2 2 2 2 1 1 1 1 1 1 1 1 1 0 0 1 2 3 3 3 3 3 3 3 2 2 2 2 2 1 1 1 0 1 2 2 2 3
4 4 3 3 2 2 2 2 1 1 1 0 0 0 1 1 1 1 1 1 0 1 2 4 4 3 3 3 3 3 3 3 3 2 2 2 2 2 1 2 3 3 3
4 4 3 3 3 2 2 2 2 1 1 1 0 1 1 0 1 1 1 0 0 1 1 2 3 3 3 4 3 3 3 4 3 3 3 3 3 3 3 2 3 3 3
4 3 3 2 3 2 2 2 2 2 1 1 1 0 1 1 1 1 1 1 1 0 0 0 1 1 2 2 3 3 4 4 4 3 3 3 3 3 3 3 3 3 3
3 3 3 2 3 2 2 2 2 2 1 1 0 1 1 1 1 1 1 1 1 1 1 0 0 1 1 2 2 3 4 4 3 3 3 3 3 3 3 4 4 4 4
3 3 3 3 3 3 3 3 2 2 1 1 1 1 2 1 1 1 1 1 1 1 0 1 1 0 1 2 3 4 4 3 3 3 4 4 4 4 4 4 4 4 5
3 3 4 3 3 3 3 3 2 2 1 2 2 1 1 2 2 1 1 1 1 0 1 0 0 0 0 0 2 4 5 4 4 4 4 4 5 5 5 5 5 5 5
4 4 4 4 3 4 4 4 4 3 3 2 2 3 2 3 2 2 2 1 1 0 1 0 0 0 0 0 1 3 4 5 5 5 5 5 5 5 6 6 6 6 6
3 3 4 4 4 3 3 4 4 3 4 3 1 1 1 2 2 1 2 1 1 1 1 1 0 0 1 1 1 3 4 5 5 6 6 6 6 6 6 5 6 6 7
2 2 3 3 3 3 3 4 4 3 3 3 2 1 1 0 1 2 2 2 2 1 1 1 1 1 1 1 1 3 4 5 5 5 6 6 7 7 6 6 6 7 7
1 1 2 3 3 3 3 4 4 4 4 3 3 2 2 2 2 2 3 2 2 2 2 1 1 1 1 1 2 3 4 4 4 5 6 6 6 6 6 6 7 7 8
1 2 2 2 2 3 3 3 3 4 4 4 4 3 2 1 2 2 2 2 2 2 2 1 2 1 1 1 2 3 3 3 4 5 5 6 6 6 6 7 7 8 8
2 2 2 2 3 3 2 2 2 3 3 3 3 3 2 2 1 1 2 2 2 2 2 3 1 2 2 2 2 2 2 3 4 5 5 6 6 6 6 7 8 8 8
1 1 2 2 3 3 3 3 2 3 2 3 3 3 3 2 1 1 1 2 3 3 4 3 2 2 2 1 2 2 2 3 5 6 6 6 6 7 7 8 8 9 9
1 1 1 2 2 3 3 3 2 2 3 3 2 3 3 2 2 1 2 2 2 3 4 2 2 2 1 2 2 2 3 4 5 6 6 6 6 7 7 8 8 9 9
1 1 1 2 2 2 3 3 3 3 3 3 2 3 3 2 2 2 1 1 2 2 4 3 2 1 1 2 2 2 2 2 3 6 7 6 7 7 7 8 9 9 10
1 1 1 1 1 1 2 3 4 4 4 4 3 3 3 2 2 2 2 2 2 3 3 5 3 2 2 2 2 2 2 2 3 6 7 7 7 7 8 8 9 9 9
1 1 1 1 1 1 2 2 3 4 4 4 4 4 4 3 3 2 2 3 2 2 2 3 3 2 2 1 2 2 3 3 3 4 5 6 7 8 8 9 9 9 9
1 1 1 2 1 1 1 1 1 2 3 3 3 3 3 4 4 3 3 3 2 2 2 2 3 2 2 2 1 2 3 2 3 3 4 5 6 7 8 9 9 9 9
2 2 2 2 2 1 1 1 1 2 2 2 2 2 2 3 3 3 3 3 2 2 2 2 3 2 2 2 2 2 3 3 3 2 2 3 3 3 4 7 8 9 10
2 2 2 2 2 2 4 3 1 1 1 1 1 1 1 1 2 3 3 3 4 4 4 4 3 4 4 3 2 2 2 3 3 1 2 3 2 3 4 3 8 10 10
2 2 2 2 2 3 5 4 3 1 0 1 1 1 1 1 1 1 2 2 3 4 5 5 5 5 4 4 3 3 3 4 4 2 2 4 2 4 4 5 9 9 9
1 1 2 2 2 3 5 4 4 2 1 1 0 1 1 1 1 1 1 2 2 3 4 3 4 4 4 3 3 3 4 3 3 2 1 3 2 3 4 4 8 9 9
1 1 1 2 2 4 5 5 5 2 2 2 2 1 1 2 3 2 1 2 3 3 4 5 5 4 5 4 2 1 1 1 3 2 1 2 2 3 3 4 5 8 8
1 1 2 2 2 3 5 5 5 2 2 2 2 2 2 3 3 2 1 2 3 4 3 3 3 4 3 3 2 2 2 2 2 3 1 1 2 2 3 3 3 4 4
Wind_Direction
159 160 158 155 158 154 155 156 155 154 148 154 162 145 138 164 152 119 341 12 200 197 210 212 212 198 198 196 197 198 191 166 160 156 148 120 63 28 356 337 331 322 302
162 162 162 164 167 170 169 166 170 167 184 176 178 167 179 196 164 171 218 276 231 209 219 229 228 223 206 205 211 215 215 206 192 187 199 196 200 304 322 316 304 297 294
165 167 167 172 179 173 163 154 146 140 151 145 194 211 198 207 195 193 223 257 279 247 232 238 240 233 225 222 221 225 235 233 224 216 218 224 236 249 281 296 293 296 296
167 169 172 181 178 167 163 162 162 156 169 165 216 299 299 255 225 221 221 259 292 306 268 243 241 241 241 238 236 235 242 242 236 227 230 237 246 249 263 276 292 296 285
171 169 175 180 171 166 172 175 170 164 176 182 199 271 295 265 242 214 213 230 231 225 236 263 274 258 250 258 264 256 252 247 240 236 241 248 253 254 256 263 273 285 287
175 167 170 175 166 168 175 173 172 162 166 174 147 339 303 286 271 244 235 239 234 219 201 201 254 298 279 283 291 288 275 267 254 249 248 250 256 261 269 269 271 275 284
176 171 172 175 175 178 187 178 168 163 165 135 90 355 332 319 297 267 245 228 246 243 214 206 217 228 293 299 295 294 289 287 284 274 264 259 259 260 267 270 272 277 284
178 182 176 183 186 181 179 175 164 162 180 161 142 125 324 326 320 302 274 225 244 280 264 263 253 220 273 298 315 297 289 289 288 282 277 273 268 264 265 268 273 282 289
184 184 183 182 188 185 191 189 181 174 187 202 176 162 173 224 292 310 297 278 267 265 275 307 298 290 283 279 296 298 302 298 291 288 287 285 277 273 275 276 275 279 283
190 189 184 186 189 192 195 196 192 191 178 194 215 223 198 164 173 285 310 318 311 275 267 267 271 292 302 285 297 299 299 298 295 289 286 287 285 283 283 287 290 286 283
189 190 186 188 191 198 200 197 192 192 193 191 186 180 181 173 170 187 255 293 317 287 262 247 244 256 279 274 272 298 293 290 294 294 290 287 286 286 288 288 290 293 293
225 211 192 192 196 200 204 204 200 193 197 193 185 179 173 178 191 189 221 248 268 277 272 244 230 239 256 263 274 299 294 297 299 298 295 290 287 288 288 290 289 291 293
246 238 214 205 206 210 206 199 197 199 196 192 194 201 202 206 179 188 203 238 260 273 270 261 240 233 241 253 267 282 290 297 301 302 301 295 292 292 292 290 289 291 293
230 229 220 214 209 205 202 199 196 199 193 200 206 201 200 214 193 188 189 196 259 274 260 257 265 235 237 245 268 272 283 297 296 298 298 295 292 290 292 291 289 289 290
236 221 223 218 212 202 198 194 198 198 188 195 205 204 206 216 211 218 202 191 199 242 257 240 242 254 239 242 269 258 265 294 293 292 294 294 293 290 288 286 285 286 286
303 245 239 231 215 204 199 194 194 194 189 201 198 197 213 216 213 215 214 229 225 225 251 246 236 251 258 270 278 264 264 288 287 288 288 289 292 294 291 288 287 287 287
344 316 278 250 233 216 207 198 199 190 196 203 199 198 217 215 213 220 220 227 241 234 251 275 266 268 257 269 290 280 278 273 281 284 284 287 291 293 295 295 291 288 289
343 330 319 301 281 250 220 205 204 198 197 200 203 201 219 217 225 224 222 231 240 240 239 265 278 279 271 283 294 290 296 294 285 290 286 290 292 295 296 297 299 299 297
350 356 350 313 301 285 247 220 213 205 203 206 205 205 216 209 227 236 233 235 240 246 244 249 271 287 294 318 313 305 301 294 294 290 293 293 292 293 294 296 297 299 300
339 342 354 336 312 319 311 247 213 212 206 209 208 209 214 213 220 226 232 238 238 243 242 245 263 280 286 302 297 289 298 294 291 293 292 296 298 297 296 296 297 298 296
345 347 0 351 345 341 340 335 247 213 213 213 211 211 217 228 237 231 230 230 222 232 238 246 255 267 270 282 268 272 278 293 286 272 290 291 292 292 296 296 296 295 293
2 15 7 354 350 343 347 344 341 241 221 210 217 220 227 219 256 259 258 245 230 227 234 238 249 250 255 260 268 267 276 289 281 272 273 282 274 277 287 285 294 293 292
4 10 2 354 340 340 353 354 358 360 247 222 217 227 276 297 261 287 288 283 265 258 245 239 247 250 254 250 250 259 261 263 265 281 290 283 281 278 287 290 290 288 296
341 341 352 345 337 340 350 2 10 7 344 327 283 250 260 290 292 305 301 291 281 273 271 263 257 264 266 261 243 252 259 269 285 293 258 268 282 286 296 288 291 290 295
331 329 349 354 348 341 354 9 15 6 358 344 334 321 296 290 300 309 290 284 293 295 298 287 283 284 288 279 263 253 269 270 279 278 233 253 287 302 297 289 294 299 300
321 340 2 0 349 342 350 5 13 10 356 342 340 332 306 306 307 303 274 266 278 291 304 306 300 304 304 301 286 245 225 240 262 270 241 226 273 311 302 293 304 309 301